Volver al catálogo

FENGYUN 1C DEB

ActivoSSO
NORAD 37917·DEBRIS·🇨🇳 China

Lanzado May 10, 1999 desde Taiyuan Satellite Launch Center

Loading…

Próximos Pases (próximas 24 horas)

TLE

ActualizadoSource: Space-Track

Época: Sep 12, 2026, 12:21 UTC

1 37917U 99025ENS 26255.51467947  .00000992  00000-0  53182-3 0  9997
2 37917  98.9319 358.5059 0045609 353.5469   6.5111 14.14882128676947

Sigue FENGYUN 1C DEB en tiempo real con AllMySat

Download on the App Store